Winfield, KS

11:42 PM CDT on March 22, 2017 (GMT -0500)
Strother

Weather History for KWLD - November, 2013

Change the Weather History Date:

Thursday, November 21, 2013

  Actual Average Record
Temperature  
Mean Temperature 42 °F -  
Max Temperature 55 °F 53 °F 75 °F (2010)
Min Temperature 28 °F 33 °F 18 °F (2008)
Degree Days  
Heating Degree Days 24    
Moisture  
Dew Point 41 °F    
Average Humidity 92    
Maximum Humidity 100    
Minimum Humidity 67    
Precipitation  
Precipitation 0.47 in - - ()
Sea Level Pressure  
Sea Level Pressure 30.11 in    
Wind  
Wind Speed 11 mph (NNE)    
Max Wind Speed 24 mph    
Max Gust Speed 36 mph    
Visibility 7 miles    
Events Rain , Thunderstorm    
Averages and records for this station are not official NWS values.
T = Trace of Precipitation, MM = Missing Value Source: NWS Daily Summary

Daily Weather History Graph

Daily Weather History Graph

Search for Another Location

Airport or City:

Trip Planner

Search our weather history database for the weather conditions in past years. The results will help you decide how hot, cold, wet, or windy it might be!

Date:

Astronomy

Nov. 21, 2013 Rise Set
Actual Time 7:13 AM CST 5:14 PM CST
Civil Twilight 6:45 AM CST 5:42 PM CST
Nautical Twilight 6:13 AM CST 6:14 PM CST
Astronomical Twilight 5:42 AM CST 6:45 PM CST
Moon 8:51 PM CST (11/21) 10:21 AM CST (11/21)
Length of Visible Light 10h 57m
Length of Day
10h 00m
Waning Gibbous, 85% of the Moon is Illuminated
Nov 21
Waning Gibbous
Nov 25
Last Quarter
Dec 2
New
Dec 9
First Quarter
Dec 17
Full

Hourly Weather History & Observations

Time (CST) Temp. Windchill Dew Point Humidity Pressure Visibility Wind Dir Wind Speed Gust Speed Precip Events Conditions
12:02 AM 55.4 °F - 44.6 °F 67% 29.93 in 10.0 mi Calm Calm - N/A Thunderstorm Overcast
12:16 AM 55.4 °F - 44.6 °F 67% 29.93 in 10.0 mi NNE 3.5 mph - N/A   Overcast
12:38 AM 53.6 °F - 44.6 °F 72% 29.92 in 10.0 mi East 6.9 mph - N/A Thunderstorm Overcast
12:54 AM 54.0 °F - 45.0 °F 72% 29.92 in 10.0 mi ESE 6.9 mph - 0.00 in Rain , Thunderstorm Light Rain
1:19 AM 51.8 °F - 46.4 °F 82% 29.92 in 10.0 mi ENE 6.9 mph - 0.00 in Rain Light Rain
1:54 AM 52.0 °F - 48.0 °F 86% 29.93 in 10.0 mi NNE 8.1 mph - 0.00 in   Mostly Cloudy
2:40 AM 53.6 °F - 48.2 °F 82% 29.95 in 10.0 mi ENE 6.9 mph - 0.00 in Rain Light Rain
2:54 AM 53.1 °F - 48.0 °F 83% 29.96 in 10.0 mi East 5.8 mph - 0.01 in Rain Light Rain
3:54 AM 52.0 °F - 50.0 °F 93% 29.94 in 10.0 mi ENE 8.1 mph - 0.01 in   Overcast
4:54 AM 52.0 °F - 50.0 °F 93% 29.94 in 10.0 mi East 9.2 mph - 0.06 in   Overcast
5:32 AM 51.8 °F - 50.0 °F 94% 29.95 in 10.0 mi East 10.4 mph - 0.02 in Rain Rain
5:54 AM 52.0 °F - 50.0 °F 93% 29.95 in 7.0 mi East 9.2 mph - 0.07 in Rain Rain
6:13 AM 51.8 °F - 51.8 °F 100% 29.96 in 7.0 mi ESE 9.2 mph - 0.04 in Rain Rain
6:39 AM 51.8 °F - 51.8 °F 100% 29.95 in 7.0 mi ESE 6.9 mph - 0.10 in Rain Light Rain
6:54 AM 52.0 °F - 51.1 °F 97% 29.95 in 10.0 mi ESE 5.8 mph - 0.10 in   Overcast
7:54 AM 52.0 °F - 52.0 °F 100% 29.99 in 9.0 mi ESE 4.6 mph - 0.00 in Rain Light Rain
8:07 AM 51.8 °F - 51.8 °F 100% 30.00 in 4.0 mi East 5.8 mph - 0.04 in Rain Rain
8:22 AM 51.8 °F - 51.8 °F 100% 30.00 in 2.5 mi North 9.2 mph - 0.10 in Rain Rain
8:54 AM 52.0 °F - 52.0 °F 100% 30.03 in 3.0 mi North 8.1 mph - 0.19 in Rain Rain
9:26 AM 51.8 °F - 51.8 °F 100% 30.04 in 10.0 mi NNE 11.5 mph - 0.03 in Rain Light Rain
9:40 AM 48.2 °F - 46.4 °F 93% 30.05 in 6.0 mi North 16.1 mph 23.0 mph 0.03 in Rain Light Rain
9:54 AM 45.0 °F 37.6 °F 45.0 °F 100% 30.07 in 6.0 mi North 17.3 mph - 0.03 in   Overcast
10:54 AM 44.1 °F 36.5 °F 43.0 °F 96% 30.09 in 5.0 mi North 17.3 mph 25.3 mph N/A   Overcast
11:54 AM 42.1 °F 34.2 °F 41.0 °F 96% 30.12 in 2.5 mi North 16.1 mph 21.9 mph N/A   Overcast
12:22 PM 41.0 °F 32.5 °F 39.2 °F 93% 30.10 in 1.8 mi North 17.3 mph 25.3 mph 0.00 in Rain Light Rain
12:40 PM 39.2 °F 29.6 °F 39.2 °F 100% 30.11 in 2.0 mi North 19.6 mph 26.5 mph 0.00 in Rain Light Rain
12:54 PM 39.9 °F 31.1 °F 39.0 °F 97% 30.12 in 2.0 mi North 17.3 mph 23.0 mph 0.00 in   Overcast
1:42 PM 37.4 °F 26.6 °F 37.4 °F 100% 30.12 in 3.0 mi North 21.9 mph 29.9 mph N/A   Overcast
1:51 PM 37.4 °F 26.6 °F 37.4 °F 100% 30.12 in 2.5 mi North 21.9 mph 25.3 mph N/A   Overcast
1:54 PM 37.9 °F 27.9 °F 37.0 °F 97% 30.13 in 2.5 mi North 19.6 mph 25.3 mph N/A   Overcast
2:47 PM 35.6 °F 24.5 °F 35.6 °F 100% 30.15 in 3.0 mi North 20.7 mph 27.6 mph N/A   Overcast
2:54 PM 35.1 °F 23.3 °F 35.1 °F 100% 30.17 in 3.0 mi North 23.0 mph 28.8 mph N/A   Overcast
3:54 PM 34.0 °F 23.0 °F 33.1 °F 96% 30.22 in 6.0 mi North 18.4 mph 27.6 mph N/A   Overcast
4:54 PM 32.0 °F 19.8 °F 30.9 °F 96% 30.28 in 7.0 mi NNW 20.7 mph 26.5 mph 0.00 in   Overcast
5:41 PM 32.0 °F 18.9 °F 30.2 °F 93% 30.27 in 9.0 mi North 24.2 mph 34.5 mph N/A   Overcast
6:12 PM 32.0 °F 19.2 °F 30.2 °F 93% 30.30 in 7.0 mi North 23.0 mph 31.1 mph N/A   Overcast
6:36 PM 30.2 °F 17.4 °F 30.2 °F 100% 30.31 in 10.0 mi North 20.7 mph 27.6 mph N/A   Overcast
6:54 PM 30.9 °F 17.5 °F 28.9 °F 92% 30.34 in 10.0 mi North 24.2 mph 35.7 mph N/A   Overcast
7:54 PM 30.0 °F 16.9 °F 27.0 °F 88% 30.37 in 10.0 mi North 21.9 mph 32.2 mph N/A   Overcast
8:54 PM 28.9 °F 14.8 °F 26.1 °F 89% 30.42 in 10.0 mi North 24.2 mph 32.2 mph N/A   Overcast
9:54 PM 28.0 °F 13.9 °F 24.1 °F 85% 30.45 in 10.0 mi North 23.0 mph 32.2 mph N/A   Overcast
10:54 PM 28.0 °F 14.9 °F 24.1 °F 85% 30.48 in 10.0 mi North 19.6 mph 33.4 mph N/A   Overcast
11:13 PM 28.4 °F 14.1 °F 23.0 °F 80% 30.45 in 10.0 mi North 24.2 mph 32.2 mph N/A   Overcast
11:54 PM 28.0 °F 13.9 °F 23.0 °F 81% 30.51 in 10.0 mi North 23.0 mph 29.9 mph N/A   Overcast